Zurück zum Katalog

STARLINK-4391

AktivKommunikationSSO
NORAD 53189·PAYLOAD·🇺🇸 United States

Gestartet Jul 22, 2022 von Vandenberg Space Force Base

Loading…

Nächste Überflüge (nächste 24 Stunden)

TLE

AktuellSource: CelesTrak SupGP

Epoche: Sep 14, 2026, 14:12 UTC

1 53189C 22084A   26257.59215278  .00061163  00000+0  18987-2 0  2571
2 53189  97.2834 313.4243 0001401  97.8012 214.9923 15.33407126    17

Verfolge STARLINK-4391 in Echtzeit mit AllMySat

Download on the App Store